COSMOS 249 DEB, 3757

Orbit data source: Space-Track

COSMOS 249 DEB, 3757 is space debris in LEO originally from a launch on Sun, 20 Oct 1968 UTC launched from the Tyuratam Missile And Space Complex (TTMTR). Debris objects in space refer to the collection of defunct objects orbiting the Earth. Examples of debris include non-operational satellites, rocket bodies, and fragments generated from explosions, collisions, or faulty payload assembly.

Loading next visibility...
Identifier
3757, 1968-091AU
Orbit
LEO
Country
Flag of CISCIS
Related business
Manufacturer
Unknown
Mission
Spacecraft
Bus & Motor
Unknown
Mass
Unknown
Launch date (UTC)
1968-10-20 (58 years ago)
Launch vehicle
Unknown
Launch site
Tyuratam Missile And Space Complex (TTMTR)
Object type
Payload
Rocket body
Debris
Shape & HBR
Unknown shape, 0.1 m
Radar Cross Section
Medium (>0.1 m² and <1 m²)

Expand to show TLE details & history
Last TLE update: 13 hours ago

TLE from 13 hours ago
0 COSMOS 249 DEB
1 03757U 68091AU  26202.17027838  .00009129  00000-0  96843-3 0  9998
2 03757  61.9719 103.3644 0360499 111.8169 252.1655 14.51994685838856
Epoch: 2026-07-21T04:05Z
TLE epoch observation values (Epoch: 2026-07-21T04:05:12.052Z)
Latitude
0.00004°
Longitude
103.12039°
Altitude
807.46 km
Speed
7.405 km/s
True Right ascension
06h 53m 27s
True Declination
0° 00' 00"
Sunlit
Object was in daylight at epoch
Visualization orbit readout
Latitude
Unknown
Longitude
Unknown
Altitude
Unknown
Speed
Unknown
Apparent Right ascension
Unknown
Apparent Declination
Unknown
Sunlit
N/A
Visualization observer readout
Local Sidereal Time
05:35:21
Azimuth
Unknown
Elevation
Unknown
Doppler factor
Unknown
Orbital elements
Apogee altitude
973.915 km
Perigee altitude
462.278 km
Semi-major axis
7,096.233 km
Eccentricity
0.03605
Inclination
61.9719°
RAAN
103.3644°
Arg. of periapsis
111.8169°
True anomaly
248.28952°
Mean anomaly
252.1655°
Eccentric anomaly
250.22184°
Mean motion
3.63079 °/min
Orbital period
99.15 mins
BSTAR
0.00096843
Loading maneuver chart data...
Computing Atmospheric mass density...

Documentation

Showing up to 5 results
|